Newton, AL

12:35 AM CDT on August 29, 2016 (GMT -0500)
Fort Rucker / Ozark

Weather History for KHEY - April, 2014

Change the Weather History Date:

Sunday, April 6, 2014

  Actual Average (KOZR) Record (KOZR)
Temperature  
Mean Temperature 60 °F -  
Max Temperature 68 °F 73 °F 87 °F (1999)
Min Temperature 54 °F 51 °F 39 °F (2011)
Degree Days  
Heating Degree Days 5    
Growing Degree Days 10 (Base 50)    
Moisture  
Dew Point 58 °F    
Average Humidity 95    
Maximum Humidity 100    
Minimum Humidity 87    
Precipitation  
Precipitation 2.65 in - - ()
Sea Level Pressure  
Sea Level Pressure 29.85 in    
Wind  
Wind Speed 6 mph (ENE)    
Max Wind Speed 17 mph    
Max Gust Speed 23 mph    
Visibility 6 miles    
Events Fog , Rain    
Averages and records for this station are not official NWS values.
T = Trace of Precipitation, MM = Missing Value Source: NWS Daily Summary

Daily Weather History Graph

Daily Weather History Graph

Search for Another Location

Airport or City:

Trip Planner

Search our weather history database for the weather conditions in past years. The results will help you decide how hot, cold, wet, or windy it might be!

Date:

Astronomy

Apr. 06, 2014 Rise Set
Actual Time 6:25 AM CDT 7:05 PM CDT
Civil Twilight 6:00 AM CDT 7:29 PM CDT
Nautical Twilight 5:31 AM CDT 7:58 PM CDT
Astronomical Twilight 5:02 AM CDT 8:28 PM CDT
Moon 11:37 AM CDT (4/6) 12:48 AM CDT (4/6)
Length of Visible Light 13h 29m
Length of Day
12h 40m
Waxing Crescent, 44% of the Moon is Illuminated
Apr 6
Waxing Crescent
Apr 7
First Quarter
Apr 15
Full
Apr 22
Last Quarter
Apr 29
New

Hourly Weather History & Observations

Time (CDT) Temp. Dew Point Humidity Pressure Visibility Wind Dir Wind Speed Gust Speed Precip Events Conditions
12:11 AM 62.1 °F 61.0 °F 96% 29.99 in 1.0 mi Calm Calm - 0.06 in Rain Rain
12:21 AM 62.1 °F 61.0 °F 96% 29.99 in 3.0 mi Calm Calm - 0.07 in Rain Light Rain
12:32 AM 62.1 °F 61.0 °F 96% 29.98 in 4.0 mi Calm Calm - 0.08 in Rain Light Rain
12:53 AM 62.1 °F 61.0 °F 96% 29.62 in 4.0 mi ESE 8.1 mph - 0.10 in Rain Light Rain
1:53 AM 62.1 °F 61.0 °F 96% 29.65 in 7.0 mi NNE 5.8 mph - 0.00 in   Mostly Cloudy
2:28 AM 62.1 °F 61.0 °F 96% 29.98 in 7.0 mi Calm Calm - 0.00 in   Overcast
2:53 AM 62.1 °F 61.0 °F 96% 29.64 in 6.0 mi Calm Calm - 0.00 in   Overcast
3:05 AM 62.1 °F 61.0 °F 96% 29.97 in 6.0 mi NNE 4.6 mph - N/A   Overcast
3:20 AM 63.0 °F 61.0 °F 93% 29.95 in 6.0 mi NNE 8.1 mph - N/A   Overcast
3:53 AM 62.1 °F 61.0 °F 96% 29.61 in 5.0 mi ENE 5.8 mph - N/A   Overcast
4:18 AM 62.1 °F 61.0 °F 96% 29.93 in 4.0 mi East 4.6 mph - N/A   Overcast
4:30 AM 62.1 °F 61.0 °F 96% 29.92 in 5.0 mi East 4.6 mph - N/A   Overcast
4:38 AM 62.1 °F 61.0 °F 96% 29.92 in 6.0 mi East 4.6 mph - N/A   Overcast
4:53 AM 62.1 °F 61.0 °F 96% 29.59 in 6.0 mi East 5.8 mph - N/A   Overcast
5:00 AM 62.1 °F 61.0 °F 96% 29.92 in 7.0 mi East 5.8 mph - N/A   Overcast
5:53 AM 63.0 °F 59.0 °F 87% 29.61 in 10.0 mi NE 8.1 mph - N/A   Overcast
6:16 AM 62.1 °F 59.0 °F 90% 29.94 in 10.0 mi NE 4.6 mph - N/A   Overcast
6:41 AM 62.1 °F 59.0 °F 90% 29.97 in 10.0 mi NNW 5.8 mph - 0.00 in Rain Light Rain
6:50 AM 60.8 °F 59.0 °F 94% 29.98 in 10.0 mi North 9.2 mph - 0.00 in Rain Light Rain
6:53 AM 61.0 °F 59.0 °F 93% 29.65 in 10.0 mi NNE 6.9 mph - 0.00 in Rain Light Rain
7:22 AM 59.0 °F 55.9 °F 90% 29.97 in 10.0 mi NE 6.9 mph - 0.00 in   Overcast
7:53 AM 59.0 °F 55.9 °F 90% 29.65 in 10.0 mi NE 8.1 mph - 0.00 in   Overcast
8:53 AM 57.9 °F 55.9 °F 93% 29.65 in 8.0 mi ENE 8.1 mph - 0.01 in   Overcast
9:01 AM 57.9 °F 55.9 °F 93% 29.99 in 9.0 mi NE 8.1 mph - N/A   Overcast
9:19 AM 57.9 °F 55.9 °F 93% 29.99 in 10.0 mi NE 8.1 mph - N/A   Overcast
9:53 AM 57.9 °F 57.0 °F 97% 29.65 in 3.0 mi East 11.5 mph - 0.01 in Rain Light Rain
10:01 AM 57.9 °F 57.0 °F 97% 29.97 in 2.5 mi East 15.0 mph - 0.02 in Rain Rain
10:19 AM 57.9 °F 57.0 °F 97% 29.99 in 3.0 mi NE 10.4 mph 21.9 mph 0.08 in Rain Rain
10:29 AM 57.0 °F 55.9 °F 96% 30.00 in 1.8 mi NNW 17.3 mph 21.9 mph 0.17 in Rain Heavy Rain
10:40 AM 55.0 °F 54.0 °F 96% 30.01 in 0.8 mi West 8.1 mph 19.6 mph 0.38 in Rain Heavy Rain
10:53 AM 55.0 °F 54.0 °F 96% 29.99 in 1.0 mi West 10.4 mph 17.3 mph 0.56 in Rain Heavy Rain
11:14 AM 54.0 °F 53.1 °F 97% 30.03 in 1.5 mi West 8.1 mph 23.0 mph 0.21 in Rain Rain
11:16 AM 54.0 °F 53.1 °F 97% 30.02 in 1.5 mi Calm Calm - 0.22 in Rain Rain
11:21 AM 54.0 °F 53.1 °F 97% 30.00 in 0.8 mi NE 13.8 mph 23.0 mph 0.50 in Rain Heavy Rain
11:46 AM 54.0 °F 53.1 °F 97% 30.02 in 0.5 mi NE 16.1 mph 21.9 mph 1.16 in Fog , Rain Heavy Rain
11:53 AM 55.0 °F 54.0 °F 96% 29.97 in 0.5 mi ENE 12.7 mph 21.9 mph 1.28 in Fog , Rain Heavy Rain
11:57 AM 55.0 °F 54.0 °F 96% 30.01 in 1.0 mi East 11.5 mph - 0.03 in Rain Heavy Rain
12:10 PM 55.9 °F 54.0 °F 93% 30.01 in 2.0 mi NE 9.2 mph - 0.11 in Rain Rain
12:21 PM 55.9 °F 55.0 °F 97% 30.01 in 1.5 mi East 11.5 mph - 0.19 in Rain Heavy Rain
12:34 PM 55.9 °F 55.0 °F 97% 30.00 in 1.5 mi East 10.4 mph - 0.28 in Rain Rain
12:49 PM 55.4 °F 55.4 °F 100% 30.01 in 2.0 mi East 8.1 mph - 0.36 in Rain Heavy Rain
12:53 PM 55.9 °F 55.0 °F 97% 29.97 in 1.5 mi ENE 6.9 mph - 0.39 in Rain Heavy Rain
1:01 PM 55.9 °F 55.0 °F 97% 30.01 in 1.8 mi ENE 10.4 mph - 0.05 in Rain Heavy Rain
1:18 PM 55.9 °F 55.0 °F 97% 30.01 in 1.8 mi ENE 10.4 mph - 0.14 in Rain Heavy Rain
1:32 PM 57.0 °F 55.9 °F 96% 30.01 in 2.0 mi ENE 9.2 mph - 0.23 in Rain Light Rain
1:40 PM 57.0 °F 55.9 °F 96% 30.01 in 3.0 mi NE 8.1 mph - 0.26 in Rain Rain
1:53 PM 57.9 °F 55.9 °F 93% 29.96 in 5.0 mi ENE 9.2 mph - 0.27 in Rain Light Rain
2:53 PM 61.0 °F 59.0 °F 93% 29.63 in 10.0 mi ENE 13.8 mph - 0.01 in   Overcast
3:00 PM 61.0 °F 59.0 °F 93% 29.96 in 10.0 mi ENE 11.5 mph - N/A   Overcast
3:08 PM 61.0 °F 59.0 °F 93% 29.96 in 10.0 mi ENE 11.5 mph - N/A   Overcast
3:53 PM 61.0 °F 59.0 °F 93% 29.60 in 10.0 mi East 12.7 mph - N/A   Overcast
4:53 PM 61.0 °F 60.1 °F 97% 29.57 in 7.0 mi East 10.4 mph - 0.02 in Rain Light Rain
5:11 PM 61.0 °F 60.1 °F 97% 29.90 in 10.0 mi ENE 9.2 mph - 0.00 in Rain Light Rain
5:24 PM 62.1 °F 60.1 °F 93% 29.88 in 10.0 mi East 11.5 mph - 0.00 in   Overcast
5:53 PM 62.1 °F 60.1 °F 93% 29.56 in 10.0 mi East 9.2 mph - 0.00 in   Overcast
6:53 PM 62.1 °F 60.1 °F 93% 29.55 in 10.0 mi East 9.2 mph - N/A   Overcast
7:53 PM 63.0 °F 61.0 °F 93% 29.53 in 10.0 mi East 8.1 mph - N/A   Overcast
8:20 PM 63.0 °F 62.1 °F 97% 29.86 in 10.0 mi ESE 6.9 mph - 0.00 in   Overcast
8:46 PM 64.0 °F 62.1 °F 93% 29.87 in 10.0 mi ESE 8.1 mph - 0.00 in   Overcast
8:53 PM 64.0 °F 62.1 °F 93% 29.54 in 10.0 mi ESE 10.4 mph - 0.00 in   Overcast
9:40 PM 64.9 °F 64.0 °F 97% 29.87 in 10.0 mi SE 9.2 mph - N/A   Overcast
9:53 PM 64.9 °F 64.0 °F 97% 29.53 in 10.0 mi SE 11.5 mph - N/A   Overcast
10:53 PM 66.9 °F 66.0 °F 97% 29.52 in 8.0 mi SSE 8.1 mph - N/A   Overcast
11:53 PM 68.0 °F 66.0 °F 93% 29.51 in 8.0 mi SSE 10.4 mph - N/A   Overcast